TimeCST,TemperatureF,Dew PointF,Humidity,Sea Level PressureIn,VisibilityMPH,Wind Direction,Wind SpeedMPH,Gust SpeedMPH,PrecipitationIn,Events,Conditions,WindDirDegrees,DateUTC
4:15 AM,46.4,42.8,87,29.82,4.0,ESE,16.1,21.9,N/A,,Overcast,110,2012-11-10 10:15:00
4:35 AM,48.2,42.8,82,29.82,4.0,ESE,17.3,-,N/A,,Overcast,110,2012-11-10 10:35:00
4:55 AM,48.2,42.8,82,29.82,4.0,ESE,11.5,20.7,N/A,,Overcast,120,2012-11-10 10:55:00
5:15 AM,-9999,-9999,N/A,-9999,4.0,North,-9999.0,-,N/A,,Haze,0,2012-11-10 11:15:00
6:15 AM,48.2,44.6,87,29.79,3.0,ESE,9.2,18.4,N/A,,Mostly Cloudy,120,2012-11-10 12:15:00
6:35 AM,48.2,44.6,87,29.80,3.0,ESE,10.4,-,N/A,,Overcast,120,2012-11-10 12:35:00
6:55 AM,48.2,46.4,93,29.79,3.0,SE,9.2,16.1,N/A,,Overcast,130,2012-11-10 12:55:00
7:15 AM,50.0,46.4,87,29.79,3.0,SE,11.5,18.4,N/A,,Overcast,130,2012-11-10 13:15:00
7:35 AM,50.0,46.4,87,29.79,3.0,SE,11.5,20.7,N/A,,Overcast,130,2012-11-10 13:35:00
7:55 AM,50.0,48.2,94,29.78,3.0,SE,12.7,21.9,N/A,,Overcast,140,2012-11-10 13:55:00
8:15 AM,51.8,48.2,88,29.78,4.0,SE,13.8,20.7,N/A,,Overcast,140,2012-11-10 14:15:00
8:35 AM,51.8,48.2,88,29.77,4.0,SE,12.7,21.9,N/A,,Overcast,140,2012-11-10 14:35:00
8:55 AM,53.6,50.0,88,29.76,5.0,SSE,16.1,21.9,N/A,,Mostly Cloudy,160,2012-11-10 14:55:00
9:15 AM,53.6,50.0,88,29.75,5.0,SSE,17.3,24.2,N/A,,Mostly Cloudy,150,2012-11-10 15:15:00
9:35 AM,55.4,50.0,82,29.74,6.0,SSE,18.4,-,N/A,,Haze,150,2012-11-10 15:35:00
9:55 AM,57.2,51.8,82,29.73,8.0,SSE,16.1,25.3,N/A,,Clear,150,2012-11-10 15:55:00
10:15 AM,59.0,51.8,77,29.73,10.0,SSE,15.0,27.6,N/A,,Clear,160,2012-11-10 16:15:00
10:35 AM,60.8,53.6,77,29.73,10.0,South,11.5,26.5,N/A,,Partly Cloudy,170,2012-11-10 16:35:00
10:55 AM,60.8,53.6,77,29.71,10.0,SSE,16.1,26.5,N/A,,Mostly Cloudy,160,2012-11-10 16:55:00
11:15 AM,62.6,53.6,72,29.70,10.0,South,18.4,26.5,N/A,,Partly Cloudy,170,2012-11-10 17:15:00
11:35 AM,64.4,53.6,68,29.69,10.0,South,18.4,-,N/A,,Clear,170,2012-11-10 17:35:00
11:55 AM,64.4,53.6,68,29.68,10.0,South,17.3,27.6,N/A,,Clear,180,2012-11-10 17:55:00
12:15 PM,66.2,55.4,68,29.67,10.0,South,13.8,23.0,N/A,,Clear,170,2012-11-10 18:15:00
12:35 PM,66.2,53.6,64,29.67,10.0,South,17.3,25.3,N/A,,Clear,170,2012-11-10 18:35:00
12:55 PM,68.0,55.4,64,29.66,10.0,South,16.1,24.2,N/A,,Clear,180,2012-11-10 18:55:00
1:15 PM,68.0,55.4,64,29.66,10.0,South,16.1,-,N/A,,Clear,180,2012-11-10 19:15:00
1:35 PM,68.0,55.4,64,29.65,10.0,South,15.0,20.7,N/A,,Partly Cloudy,180,2012-11-10 19:35:00
1:55 PM,69.8,55.4,60,29.65,-9999.0,South,15.0,21.9,N/A,,Partly Cloudy,180,2012-11-10 19:55:00
2:15 PM,69.8,55.4,60,29.65,10.0,South,18.4,24.2,N/A,,Clear,170,2012-11-10 20:15:00
2:35 PM,69.8,55.4,60,29.65,10.0,South,15.0,25.3,N/A,,Clear,170,2012-11-10 20:35:00
2:55 PM,71.6,55.4,57,29.65,10.0,South,18.4,26.5,N/A,,Clear,180,2012-11-10 20:55:00
3:15 PM,71.6,55.4,57,29.65,10.0,South,10.4,21.9,N/A,,Partly Cloudy,170,2012-11-10 21:15:00
3:35 PM,69.8,55.4,60,29.65,10.0,South,16.1,21.9,N/A,,Partly Cloudy,170,2012-11-10 21:35:00
3:55 PM,69.8,55.4,60,29.65,10.0,SSE,11.5,18.4,N/A,,Partly Cloudy,160,2012-11-10 21:55:00
4:15 PM,68.0,55.4,64,29.63,10.0,South,15.0,-,N/A,,Partly Cloudy,170,2012-11-10 22:15:00
4:35 PM,68.0,55.4,64,29.62,10.0,SSE,13.8,21.9,N/A,,Partly Cloudy,160,2012-11-10 22:35:00
4:55 PM,68.0,55.4,64,29.64,10.0,South,15.0,24.2,N/A,,Scattered Clouds,170,2012-11-10 22:55:00
5:15 PM,66.2,55.4,68,29.61,10.0,SSE,17.3,-,N/A,,Mostly Cloudy,160,2012-11-10 23:15:00
5:35 PM,66.2,55.4,68,29.62,10.0,SSE,17.3,23.0,N/A,,Partly Cloudy,160,2012-11-10 23:35:00
5:55 PM,66.2,55.4,68,29.64,10.0,South,16.1,25.3,N/A,,Scattered Clouds,170,2012-11-10 23:55:00
6:15 PM,64.4,55.4,73,29.64,10.0,South,16.1,23.0,N/A,,Mostly Cloudy,170,2012-11-11 00:15:00
6:35 PM,66.2,55.4,68,29.64,10.0,South,15.0,25.3,N/A,,Mostly Cloudy,180,2012-11-11 00:35:00
6:55 PM,64.4,55.4,73,29.65,10.0,South,19.6,28.8,N/A,,Mostly Cloudy,180,2012-11-11 00:55:00
7:15 PM,64.4,55.4,73,29.63,10.0,South,21.9,28.8,N/A,,Mostly Cloudy,170,2012-11-11 01:15:00
7:35 PM,64.4,55.4,73,29.62,10.0,South,18.4,28.8,N/A,,Mostly Cloudy,170,2012-11-11 01:35:00
7:55 PM,64.4,55.4,73,29.63,10.0,South,17.3,25.3,N/A,,Mostly Cloudy,180,2012-11-11 01:55:00
8:15 PM,66.2,53.6,64,29.63,10.0,South,15.0,26.5,N/A,,Mostly Cloudy,180,2012-11-11 02:15:00
8:35 PM,66.2,53.6,64,29.63,10.0,South,16.1,28.8,N/A,,Partly Cloudy,180,2012-11-11 02:35:00
8:55 PM,64.4,51.8,64,29.62,10.0,South,16.1,26.5,N/A,,Clear,170,2012-11-11 02:55:00
9:15 PM,64.4,51.8,64,29.62,10.0,South,16.1,23.0,N/A,,Clear,170,2012-11-11 03:15:00
9:35 PM,64.4,51.8,64,29.62,10.0,South,16.1,23.0,N/A,,Clear,180,2012-11-11 03:35:00
10:15 PM,64.4,50.0,59,29.62,10.0,South,16.1,24.2,N/A,,Clear,180,2012-11-11 04:15:00
10:35 PM,64.4,50.0,59,29.62,10.0,South,16.1,23.0,N/A,,Unknown,170,2012-11-11 04:35:00
10:55 PM,64.4,48.2,56,29.62,10.0,South,18.4,26.5,N/A,,Partly Cloudy,180,2012-11-11 04:55:00
11:15 PM,64.4,48.2,56,29.63,10.0,South,13.8,27.6,N/A,,Partly Cloudy,180,2012-11-11 05:15:00
11:35 PM,64.4,48.2,56,29.64,10.0,South,16.1,29.9,N/A,,Mostly Cloudy,190,2012-11-11 05:35:00
11:55 PM,64.4,48.2,56,29.65,10.0,South,16.1,29.9,N/A,,Unknown,190,2012-11-11 05:55:00